This demonstration page uses our WeatherBlox Daily Observations layout. Learn more.

Left ArrowRight Arrow

38.88101, -77.10428

Hourly Observations for July 4, 2021

Temp ( °F °C ) Dew Point ( °F °C ) Humidity (%) Winds ( mph kmh ) Pressure ( in mb ) Visibility ( mi km ) Precip ( " mm )
12:52 am 00:52 Partly Cloudy 68 20 58 14.4 70 70 W 3 6 29.90 1013 10 16 N/A
1:52 am 01:52 Partly Cloudy 69 20.6 59 15 70 70 WSW 3 6 29.89 1012 10 16 N/A
2:52 am 02:52 Mostly Cloudy 68 20 59 15 73 73 N N/A 29.88 1012 10 16 N/A
3:52 am 03:52 Mostly Cloudy 66 18.9 60 15.6 81 81 SSW 3 6 29.87 1012 10 16 N/A
4:52 am 04:52 Partly Cloudy 65 18.3 58 14.4 78 78 W 5 7 29.88 1012 10 16 N/A
5:52 am 05:52 Mostly Sunny 66 18.9 60 15.6 81 81 N N/A 29.88 1012 10 16 N/A
6:52 am 06:52 Mostly Sunny 66 18.9 60 15.6 81 81 SSW 5 7 29.90 1012 10 16 N/A
7:52 am 07:52 Mostly Cloudy 68 20 60 15.6 76 76 N N/A 29.91 1013 10 16 N/A
8:52 am 08:52 Mostly Cloudy 73 22.8 60 15.6 64 64 N N/A 29.92 1013 10 16 N/A
9:52 am 09:52 Partly Cloudy 77 25 60 15.6 56 56 E 5 7 29.91 1013 10 16 N/A
10:52 am 10:52 Partly Cloudy 81 27.2 60 15.6 49 49 N 5 7 29.92 1013 10 16 N/A
11:52 am 11:52 Mostly Cloudy 83 28.3 59 15 44 44 VRB 5 7 29.91 1013 10 16 N/A
12:52 pm 12:52 Mostly Cloudy 83 28.3 57 13.9 41 41 N N/A 29.91 1013 10 16 N/A
1:52 pm 13:52 Mostly Cloudy 84 28.9 59 15 43 43 WNW 8 13 29.91 1013 10 16 N/A
2:52 pm 14:52 Mostly Cloudy 84 28.9 60 15.6 44 44 W 8 13 29.90 1013 10 16 N/A
3:52 pm 15:52 Partly Cloudy 82 27.8 62 16.7 51 51 S 12 19 29.89 1012 10 16 N/A
4:52 pm 16:52 Mostly Cloudy 82 27.8 62 16.7 51 51 S 10 17 29.89 1012 10 16 N/A
5:52 pm 17:52 Partly Cloudy 84 28.9 61 16.1 46 46 WSW 10 17 29.90 1012 10 16 N/A
6:52 pm 18:52 Partly Cloudy 83 28.3 60 15.6 46 46 WSW 8 13 29.91 1013 10 16 N/A
7:52 pm 19:52 Partly Cloudy 82 27.8 60 15.6 47 47 WSW 9 15 29.93 1013 10 16 N/A
8:52 pm 20:52 Partly Cloudy 80 26.7 61 16.1 52 52 SW 6 9 29.94 1014 10 16 N/A
9:43 pm 21:43 Partly Cloudy with Smoke 78 25.6 65 18.3 64 64 SSE 7 11 29.96 1014 8 13 N/A
9:52 pm 21:52 Partly Cloudy 78 25.6 64 17.8 62 62 SSE 7 11 29.96 1015 10 16 N/A
10:52 pm 22:52 Partly Cloudy 76 24.4 64 17.8 67 67 S 6 9 29.97 1015 8 13 N/A
11:52 pm 23:52 Mostly Clear 75 23.9 65 18.3 71 71 SSE 5 7 29.98 1015 10 16 N/A

Powered by AerisWeather